Theta_e
327 326 327 325 320 319 318 316 316 316 315 315 315 314 314 313 313 314 313 325 327 329 330 330 331 331 331 331 332 332 332 332 333 333 333 334 334 334 335 334 339 343 342
324 323 323 319 317 317 316 315 314 314 313 313 313 313 313 312 312 312 313 313 324 326 327 328 329 329 330 330 330 330 331 331 332 332 333 334 333 332 333 335 336 340 343
322 320 319 316 316 316 315 314 314 312 310 311 310 311 311 310 312 312 311 312 313 321 324 325 326 327 328 328 329 329 328 328 328 330 330 330 332 331 331 335 336 338 340
323 321 319 317 319 315 314 313 310 308 308 307 307 308 309 310 310 310 310 309 310 313 316 321 323 324 325 326 327 327 327 327 327 328 328 329 329 331 332 331 335 336 338
324 321 318 315 315 313 312 311 308 306 305 306 308 308 309 308 307 310 307 308 309 309 309 316 319 320 321 323 324 325 325 324 326 326 326 328 328 329 331 331 332 333 335
322 316 314 314 313 310 310 308 306 306 305 306 308 308 307 306 306 305 306 308 307 308 308 309 309 311 319 322 323 324 324 322 323 325 326 326 327 327 328 330 330 331 333
318 314 312 313 311 309 309 307 306 305 305 306 303 303 303 304 304 306 305 305 305 308 308 309 309 309 310 318 320 322 324 326 325 324 324 325 326 326 327 328 329 330 332
315 313 312 311 310 309 307 306 306 305 305 306 305 299 297 301 303 308 304 305 304 306 307 308 308 309 309 310 314 322 324 326 325 326 325 325 325 326 326 327 328 329 330
313 312 312 310 309 307 306 305 306 306 309 305 309 305 299 298 304 306 303 303 303 303 307 308 308 309 309 309 315 317 322 323 324 325 326 325 325 324 325 326 327 328 329
313 314 311 311 308 307 305 305 309 306 307 304 306 308 308 306 302 300 304 305 304 305 306 308 307 308 309 309 315 319 320 322 324 325 324 324 325 325 324 324 325 327 328
312 313 310 308 308 306 305 305 306 305 305 304 304 303 304 306 306 303 300 302 305 304 306 307 308 308 310 310 309 313 319 321 320 322 323 324 324 324 324 324 324 325 327
306 307 308 306 306 306 305 305 305 305 305 309 307 303 302 302 301 300 302 303 301 301 303 306 306 308 310 310 314 317 319 320 317 319 321 322 323 323 324 323 324 325 326
301 302 302 302 302 304 305 304 304 305 306 305 302 302 302 302 303 301 301 300 297 296 298 300 302 304 310 310 311 317 320 316 315 317 319 320 320 322 323 323 324 323 324
301 302 302 303 304 304 304 303 304 306 306 301 300 300 299 301 301 301 300 297 295 294 294 295 301 302 307 309 313 317 311 313 313 316 317 318 318 320 322 322 323 322 322
305 304 303 303 303 304 304 304 303 301 299 298 297 298 297 300 301 301 304 303 300 292 293 295 295 301 305 307 311 313 307 310 313 313 315 317 318 319 320 319 320 322 322
302 302 302 302 301 301 300 298 297 297 296 295 296 296 296 299 301 303 303 303 302 299 294 298 297 300 302 306 310 310 306 312 311 312 313 317 318 317 318 317 317 319 321
301 302 302 302 300 298 297 295 294 295 294 294 294 295 296 299 300 302 302 301 301 300 295 295 296 299 300 301 304 305 305 305 308 311 313 316 316 316 315 315 314 316 320
301 302 302 302 300 299 296 295 294 294 294 293 295 295 299 302 299 301 302 301 300 299 297 291 294 297 298 301 303 300 303 305 307 310 312 316 316 315 314 314 312 312 313
301 302 302 301 300 299 297 296 295 295 294 294 295 296 298 298 296 298 298 299 298 297 296 294 294 298 297 300 300 300 301 302 307 311 311 314 315 314 314 313 311 310 310
301 301 301 302 301 299 299 297 296 294 294 295 296 297 301 301 299 301 300 298 297 296 295 294 295 294 297 299 297 297 297 300 303 308 312 311 314 313 313 312 310 310 309
302 302 302 302 301 299 300 297 297 296 293 293 295 299 301 302 304 302 300 298 296 295 295 294 293 292 294 294 295 295 295 298 303 306 304 307 311 310 311 310 310 309 308
301 301 301 301 301 301 302 303 302 296 296 293 294 297 298 301 300 302 302 300 299 295 294 294 292 290 290 293 295 294 294 295 297 305 303 304 309 308 309 309 308 307 306
299 299 300 299 299 299 301 301 301 297 293 293 293 294 295 297 299 299 298 299 298 299 299 296 294 292 289 293 295 294 296 295 297 302 303 305 308 306 309 310 308 306 306
298 298 299 299 298 300 300 298 299 293 293 293 293 292 291 295 298 297 296 295 295 296 296 295 295 294 292 296 297 299 299 298 301 303 304 301 306 305 307 310 308 306 304
297 296 299 298 296 294 297 297 295 292 292 291 293 292 293 295 296 296 293 293 294 294 298 299 298 297 297 297 300 299 298 299 297 299 303 301 305 303 305 307 309 307 304
297 299 299 296 299 294 296 296 295 292 289 290 291 291 295 296 295 295 294 291 291 291 294 292 294 296 296 298 299 298 297 295 298 296 302 300 303 304 300 306 307 309 309
Wind_Speed
5 3 4 4 4 3 4 6 6 6 6 6 6 6 6 5 5 4 3 16 17 17 14 12 10 8 9 11 11 10 10 12 14 15 16 18 17 18 21 22 19 20 19
5 5 5 4 5 4 4 4 4 5 4 4 6 6 6 5 5 6 5 6 15 15 15 15 14 14 15 15 15 15 14 16 18 18 16 17 19 20 21 21 22 20 21
6 6 4 4 4 4 6 5 5 4 4 5 6 6 4 5 5 6 5 4 7 13 16 17 17 17 17 16 17 18 18 18 18 20 20 18 20 21 22 22 22 22 21
6 5 4 4 4 4 4 4 3 3 4 4 4 5 4 4 5 5 5 5 5 5 10 18 18 17 17 17 17 17 16 16 18 19 19 20 22 21 22 22 21 22 21
5 4 4 4 4 4 4 3 2 1 3 4 5 5 5 4 4 4 5 5 6 5 5 13 19 18 17 17 18 19 20 19 19 19 21 21 21 22 20 22 20 21 23
4 5 4 4 4 3 3 2 2 2 2 3 4 5 6 3 2 3 4 5 5 6 8 8 8 8 19 18 18 18 19 17 17 20 22 21 21 21 21 19 21 20 20
4 5 4 3 2 3 1 3 2 3 3 2 3 5 4 2 1 4 4 4 6 6 8 7 6 5 7 17 18 18 19 20 19 18 19 19 19 20 21 21 21 23 20
3 4 4 2 2 2 4 4 3 3 3 2 2 2 4 5 3 7 4 4 6 6 9 9 8 8 7 6 12 20 20 22 20 21 21 22 19 20 22 21 21 22 23
0 4 3 1 1 1 2 3 3 2 3 3 2 2 3 3 8 1 4 4 6 5 7 7 8 8 8 7 12 11 17 19 21 25 27 25 24 21 21 21 22 20 24
4 3 2 1 2 2 3 3 3 3 2 4 3 2 4 4 4 4 2 4 4 6 7 7 7 8 8 7 14 17 18 21 23 23 22 22 23 22 22 22 22 22 20
4 3 2 1 3 3 4 4 4 4 2 2 2 2 3 3 5 4 8 6 4 4 6 5 8 7 8 7 7 10 21 22 25 23 22 21 22 23 23 26 26 25 23
4 4 3 2 3 5 5 4 4 4 5 4 3 3 3 3 4 3 5 9 4 3 5 5 8 8 8 8 12 21 21 21 24 23 22 21 21 22 23 24 24 25 27
2 3 3 4 3 4 6 5 4 5 4 3 4 4 3 4 3 3 3 5 3 4 3 2 9 7 9 8 9 20 21 21 22 22 22 18 20 22 23 25 25 26 26
2 3 5 6 7 7 6 5 3 3 4 4 6 5 4 5 4 3 3 3 5 3 2 6 7 8 9 10 15 22 7 22 22 22 20 19 20 23 24 25 27 27 26
3 4 5 5 6 6 6 6 5 6 5 4 5 6 4 4 4 4 3 3 3 7 7 5 4 8 10 11 14 12 6 17 23 22 21 20 20 21 20 19 21 24 24
3 4 5 5 5 6 6 6 4 4 5 4 4 6 5 4 6 5 3 3 3 3 6 7 7 9 10 10 14 10 8 19 20 22 21 20 19 19 18 17 18 20 24
3 4 5 5 5 4 4 5 5 5 6 6 7 6 8 7 5 4 3 3 3 1 4 6 6 9 9 9 11 8 8 9 9 21 22 21 18 16 17 17 18 17 19
3 4 4 3 3 2 0 0 3 5 5 6 7 7 7 5 6 6 5 5 3 3 3 8 6 7 8 10 9 8 8 8 8 15 23 19 17 18 18 16 17 17 13
4 5 2 4 4 5 4 4 3 5 6 6 6 6 7 6 6 6 5 3 3 4 5 4 7 8 5 6 8 5 8 9 8 18 17 17 15 18 19 16 18 16 13
5 5 5 4 6 7 6 5 5 4 6 6 7 7 8 7 6 4 2 3 4 5 6 6 7 7 4 6 5 6 10 7 10 9 9 15 15 18 17 18 19 19 17
5 6 6 5 7 6 6 7 4 4 6 7 8 9 8 12 17 12 3 4 4 5 6 7 8 7 7 8 8 4 6 9 9 3 8 8 8 7 10 15 17 18 17
5 6 6 6 7 6 12 9 5 4 6 7 7 8 7 13 12 19 11 10 9 7 9 8 7 5 5 9 8 7 6 7 7 2 7 7 4 6 8 9 21 19 20
4 6 7 6 7 7 11 5 1 3 6 6 7 7 8 8 12 7 7 12 15 18 15 9 8 4 6 10 10 10 8 4 6 7 6 3 3 5 6 9 22 18 20
4 6 7 7 6 5 4 7 6 5 6 6 7 7 6 7 4 7 8 9 10 9 9 7 4 7 6 9 9 10 9 5 5 4 3 3 3 3 5 7 15 19 19
4 4 5 4 6 3 7 6 5 5 6 7 8 7 7 7 11 14 8 7 9 9 8 12 13 14 12 12 8 7 5 3 3 3 2 2 2 3 3 5 8 15 15
5 4 3 3 4 4 3 7 5 3 5 6 8 7 10 9 15 16 7 6 7 8 7 8 8 6 6 5 7 4 5 5 3 3 1 5 3 3 3 3 5 8 8
Wind_Direction
72 61 44 56 38 14 18 10 16 17 10 359 359 351 335 347 353 334 333 335 336 335 334 334 335 312 304 301 296 287 285 288 280 278 277 275 273 273 270 266 266 258 244
84 62 54 37 22 15 20 36 23 17 5 350 337 330 338 346 338 335 335 327 353 353 353 340 332 321 315 308 306 304 297 295 291 283 272 283 285 279 271 269 261 264 247
79 75 66 43 17 20 34 33 21 18 3 346 337 327 330 323 331 340 338 351 331 349 354 346 334 328 318 311 309 304 296 290 304 297 288 284 276 276 271 269 265 256 256
66 69 60 36 354 28 32 40 12 355 347 344 320 311 309 319 338 338 350 352 339 360 351 345 334 327 321 314 308 306 309 311 302 298 295 287 283 279 274 264 265 258 255
75 62 69 40 45 33 36 16 344 353 330 329 315 314 304 321 339 354 347 344 337 341 341 340 337 327 320 316 314 306 303 302 300 302 296 288 288 287 285 276 265 265 259
88 92 74 68 46 41 13 347 322 319 277 294 309 308 300 315 326 356 344 340 334 337 338 315 319 319 325 313 315 312 304 298 292 287 289 283 280 281 283 280 280 265 267
103 100 89 90 35 51 308 341 310 324 306 297 325 307 307 309 240 3 345 336 329 318 316 305 313 310 303 310 314 312 306 302 307 301 295 297 284 279 278 278 273 271 262
121 115 108 108 49 30 351 334 330 307 273 307 304 298 327 320 313 333 319 326 303 311 305 304 305 294 295 305 303 312 308 307 303 301 301 300 290 287 283 278 276 270 266
36 92 114 136 103 79 297 286 288 302 286 287 261 245 319 297 325 234 276 292 293 294 297 294 305 307 310 306 310 313 324 312 302 303 303 297 282 283 287 276 278 275 265
359 64 110 143 204 234 274 275 293 275 292 295 310 228 236 256 314 309 242 295 273 287 297 307 302 298 303 306 312 314 314 312 309 302 301 300 294 281 280 282 283 279 271
36 83 59 352 235 257 261 270 290 291 273 260 258 286 273 262 249 269 299 312 299 314 296 287 304 298 303 295 297 295 307 316 318 314 307 302 293 289 285 277 272 277 268
28 23 33 355 273 266 276 278 281 277 273 250 274 283 255 279 282 270 290 312 300 288 294 306 315 308 304 299 297 313 307 320 319 310 308 300 295 289 282 278 273 266 264
341 313 316 313 292 280 280 283 273 282 298 335 315 290 284 272 259 257 269 282 258 269 285 290 308 311 302 306 294 307 311 320 317 309 304 307 304 301 288 276 268 262 261
295 307 327 327 316 305 308 307 297 338 1 354 331 309 283 287 267 242 236 261 295 282 294 296 301 319 311 311 305 313 307 318 319 317 312 305 302 299 294 287 268 258 254
321 344 340 338 348 4 16 30 44 23 9 337 314 315 299 292 284 270 269 265 278 318 324 320 309 314 309 309 308 310 302 309 324 320 315 308 304 309 304 302 284 257 247
340 337 337 358 41 52 47 47 15 337 337 314 311 312 306 291 295 277 269 279 269 282 308 321 307 299 300 306 309 315 297 318 315 321 317 311 314 319 310 310 295 274 245
316 338 334 33 93 70 45 35 360 335 335 326 313 306 302 293 299 295 296 288 293 285 290 308 300 296 297 297 312 303 303 303 311 321 322 316 313 315 317 317 313 302 256
304 321 353 115 130 118 133 50 327 320 322 311 300 318 303 328 315 295 285 284 287 300 289 299 295 304 307 306 299 301 308 309 308 319 321 318 313 318 320 319 320 311 295
289 308 351 177 216 228 241 240 267 291 312 300 302 307 293 300 299 301 288 304 305 301 295 277 289 300 282 301 315 309 307 310 317 325 312 325 323 321 320 328 321 309 293
280 276 278 221 223 244 251 258 257 294 308 301 302 292 295 293 287 299 301 277 283 292 290 290 301 309 302 315 303 313 325 327 320 325 322 327 317 324 328 336 331 327 302
282 269 280 285 251 252 257 239 259 303 300 308 304 299 295 308 318 306 278 269 292 300 300 307 303 307 315 322 322 307 307 313 315 286 338 321 323 326 340 346 342 345 353
281 281 289 288 284 263 264 263 226 289 309 307 308 311 305 324 320 317 306 318 321 311 298 299 287 286 290 307 307 308 306 315 329 330 335 308 313 334 342 348 352 10 19
289 294 298 289 282 274 285 272 128 322 311 307 314 317 320 321 324 333 324 318 307 306 306 298 285 272 297 296 301 301 292 276 291 312 314 282 327 330 333 338 358 8 30
298 299 299 316 316 319 59 85 34 330 312 314 306 300 302 307 304 320 305 307 305 297 296 292 284 295 272 294 295 277 275 276 276 274 331 292 319 309 327 343 348 5 23
299 292 314 347 106 75 79 51 6 323 313 302 294 292 292 301 317 318 310 302 308 306 307 312 303 299 290 303 334 331 353 317 303 296 358 283 316 312 326 335 347 353 16
269 305 349 114 139 134 99 19 328 323 312 306 294 284 307 321 328 319 310 295 298 294 305 305 311 307 314 303 332 343 317 327 302 308 4 341 311 341 336 332 340 353 6